Location: Chillicothe
(39.7950°N, 93.5520°W)
Time: 15:08:26
(UTC-06:00)

BEESAT - Pass Details

Date: 16 November 2019
Orbit: 700 x 709 km, 98.6° (Epoch: 11 December)

Event Time Altitude Azimuth Distance (km) Brightness Sun altitude
Rises 17:23:22 0° 18° (NNE) 3,095 ? -5.4°
Reaches altitude 10° 17:25:41 10° 24° (NNE) 2,173 ? -5.8°
Maximum altitude 17:30:19 52° 100° (E) 875 ? -6.7°
Drops below altitude 10° 17:34:56 10° 177° (S) 2,162 ? -7.5°
Sets 17:37:14 0° 182° (S) 3,077 ? -7.9°
